Total_Precipitation_Accumulation
0.00 0.00 0.00 0.03 0.14 0.23 0.49 0.32 0.37 0.17 0.09 0.14 0.29 0.46 0.59 0.83 1.17 1.09 1.23 1.07 0.88 0.88 1.17 1.10 0.88 0.62 0.30 0.20 0.19 0.22 0.25 0.41 0.81 0.47 0.47 0.42 0.53 0.52 0.41 0.39 0.38 0.46 0.47 0.43
0.00 0.00 0.00 0.08 0.31 0.37 0.41 0.26 0.11 0.05 0.07 0.20 0.39 0.60 0.50 0.63 0.66 1.56 1.09 0.95 0.82 0.68 0.61 0.60 0.49 0.41 0.31 0.33 0.27 0.31 0.34 0.26 0.41 0.36 0.32 0.39 0.38 0.49 0.49 0.46 0.33 0.30 0.37 0.35
0.01 0.00 0.03 0.39 0.34 0.44 1.09 0.46 0.32 0.50 0.51 0.49 0.61 0.50 0.51 1.09 2.01 1.55 0.93 0.95 0.67 0.59 0.46 0.33 0.21 0.16 0.15 0.13 0.14 0.16 0.47 0.40 0.21 0.32 0.43 0.32 0.38 0.37 0.42 0.46 0.68 0.59 0.38 0.38
0.01 0.01 0.16 0.35 0.06 0.02 0.29 0.65 0.54 0.33 0.49 0.63 0.50 0.49 0.51 0.62 1.06 0.88 0.58 0.72 0.31 0.14 0.10 0.08 0.11 0.09 0.07 0.04 0.04 0.04 0.09 0.15 0.35 0.24 0.20 0.25 0.26 0.33 0.34 0.50 0.51 0.49 0.52 0.32
0.05 0.02 0.07 0.16 0.00 0.00 0.03 0.23 0.18 0.30 0.51 0.76 0.55 0.38 0.17 0.04 0.08 0.16 0.06 0.03 0.01 0.00 0.01 0.01 0.01 0.01 0.02 0.03 0.01 0.04 0.07 0.10 0.11 0.13 0.15 0.25 0.15 0.17 0.25 0.31 0.43 0.48 0.41 0.25
0.07 0.09 0.16 0.16 0.00 0.00 0.03 0.23 0.10 0.26 0.26 0.53 0.34 0.21 0.19 0.06 0.02 0.00 0.00 0.00 0.00 0.00 0.00 0.00 0.00 0.00 0.00 0.00 0.01 0.01 0.06 0.15 0.25 0.28 0.19 0.12 0.10 0.16 0.21 0.23 0.27 0.30 0.36 0.41
0.07 0.11 0.22 0.09 0.00 0.00 0.09 0.20 0.25 0.59 0.72 0.69 0.93 0.67 0.37 0.14 0.03 0.00 0.00 0.00 0.00 0.00 0.00 0.00 0.00 0.00 0.00 0.00 0.00 0.00 0.02 0.14 0.24 0.34 0.35 0.29 0.20 0.12 0.13 0.18 0.24 0.33 0.32 0.23
0.06 0.09 0.19 0.02 0.01 0.09 0.13 0.06 0.24 0.76 0.88 0.56 0.54 0.52 0.30 0.12 0.04 0.00 0.00 0.00 0.00 0.00 0.00 0.00 0.00 0.00 0.00 0.00 0.00 0.00 0.00 0.03 0.15 0.25 0.33 0.32 0.26 0.22 0.18 0.15 0.16 0.20 0.35 0.40
0.12 0.22 0.17 0.01 0.04 0.05 0.05 0.06 0.29 0.76 0.76 0.41 0.20 0.16 0.09 0.02 0.00 0.00 0.00 0.00 0.00 0.00 0.00 0.00 0.00 0.00 0.01 0.01 0.00 0.00 0.00 0.00 0.02 0.06 0.16 0.30 0.33 0.25 0.26 0.38 0.37 0.37 0.31 0.31
0.03 0.09 0.01 0.01 0.00 0.01 0.03 0.03 0.17 0.45 0.25 0.23 0.16 0.15 0.08 0.03 0.01 0.01 0.00 0.00 0.00 0.00 0.00 0.00 0.00 0.00 0.01 0.00 0.00 0.00 0.00 0.00 0.00 0.02 0.06 0.13 0.26 0.28 0.27 0.37 0.65 0.68 0.57 0.54
0.01 0.01 0.01 0.02 0.01 0.01 0.02 0.03 0.06 0.20 0.15 0.11 0.10 0.11 0.09 0.04 0.02 0.02 0.01 0.02 0.01 0.00 0.00 0.01 0.01 0.01 0.01 0.00 0.00 0.00 0.00 0.00 0.00 0.00 0.02 0.06 0.13 0.22 0.28 0.40 0.53 0.70 0.85 0.78
0.01 0.04 0.04 0.02 0.02 0.01 0.02 0.03 0.05 0.06 0.15 0.10 0.06 0.05 0.03 0.04 0.02 0.01 0.01 0.01 0.02 0.02 0.01 0.01 0.01 0.01 0.01 0.01 0.00 0.00 0.00 0.00 0.01 0.01 0.01 0.01 0.04 0.11 0.19 0.26 0.34 0.48 0.63 0.71
0.02 0.01 0.02 0.02 0.03 0.01 0.02 0.04 0.05 0.04 0.05 0.12 0.15 0.06 0.03 0.02 0.03 0.02 0.01 0.01 0.02 0.03 0.04 0.03 0.02 0.03 0.03 0.02 0.00 0.00 0.01 0.01 0.01 0.01 0.01 0.02 0.02 0.02 0.08 0.13 0.15 0.23 0.30 0.39
0.00 0.00 0.00 0.00 0.00 0.01 0.01 0.02 0.04 0.02 0.03 0.02 0.05 0.06 0.04 0.04 0.02 0.01 0.03 0.02 0.01 0.01 0.02 0.03 0.02 0.04 0.05 0.03 0.01 0.00 0.00 0.01 0.01 0.01 0.01 0.01 0.01 0.02 0.02 0.03 0.05 0.13 0.18 0.19
0.00 0.00 0.00 0.00 0.00 0.00 0.00 0.00 0.00 0.00 0.00 0.01 0.01 0.03 0.02 0.02 0.02 0.02 0.01 0.01 0.00 0.00 0.01 0.01 0.02 0.04 0.05 0.03 0.02 0.01 0.01 0.01 0.01 0.01 0.01 0.01 0.00 0.00 0.00 0.01 0.02 0.06 0.08 0.12
0.00 0.00 0.00 0.00 0.00 0.00 0.00 0.00 0.01 0.01 0.01 0.01 0.01 0.03 0.04 0.01 0.01 0.01 0.00 0.00 0.01 0.02 0.03 0.02 0.02 0.06 0.07 0.05 0.03 0.03 0.02 0.01 0.01 0.01 0.01 0.01 0.01 0.01 0.01 0.02 0.02 0.03 0.04 0.08
0.00 0.00 0.00 0.00 0.00 0.00 0.00 0.00 0.00 0.01 0.01 0.02 0.02 0.02 0.02 0.02 0.01 0.01 0.02 0.01 0.00 0.01 0.03 0.04 0.05 0.04 0.05 0.05 0.04 0.03 0.02 0.01 0.00 0.01 0.01 0.01 0.00 0.00 0.00 0.01 0.01 0.01 0.04 0.02
0.00 0.00 0.00 0.00 0.00 0.00 0.00 0.00 0.00 0.00 0.01 0.03 0.02 0.01 0.01 0.02 0.02 0.02 0.02 0.04 0.02 0.01 0.01 0.03 0.03 0.03 0.03 0.04 0.02 0.02 0.01 0.01 0.01 0.01 0.01 0.01 0.00 0.00 0.00 0.00 0.01 0.01 0.02 0.00
0.00 0.00 0.00 0.00 0.00 0.00 0.00 0.00 0.01 0.01 0.02 0.03 0.02 0.01 0.01 0.02 0.02 0.01 0.00 0.00 0.00 0.01 0.02 0.02 0.02 0.02 0.03 0.05 0.03 0.02 0.02 0.02 0.01 0.01 0.01 0.01 0.02 0.01 0.01 0.01 0.01 0.01 0.01 0.01
0.00 0.00 0.00 0.00 0.00 0.00 0.00 0.00 0.01 0.01 0.01 0.02 0.02 0.01 0.01 0.01 0.01 0.02 0.02 0.01 0.03 0.07 0.03 0.01 0.02 0.02 0.03 0.05 0.05 0.04 0.04 0.04 0.04 0.04 0.03 0.03 0.02 0.02 0.01 0.00 0.00 0.01 0.01 0.01
0.00 0.00 0.00 0.00 0.00 0.00 0.00 0.00 0.00 0.01 0.01 0.01 0.01 0.01 0.01 0.00 0.00 0.01 0.03 0.02 0.01 0.01 0.01 0.01 0.02 0.03 0.03 0.06 0.06 0.06 0.07 0.06 0.05 0.06 0.05 0.04 0.04 0.02 0.01 0.01 0.01 0.01 0.01 0.01
0.00 0.00 0.00 0.00 0.00 0.00 0.00 0.00 0.00 0.00 0.00 0.00 0.01 0.01 0.02 0.02 0.04 0.03 0.01 0.03 0.02 0.00 0.01 0.01 0.03 0.05 0.06 0.06 0.07 0.07 0.07 0.07 0.07 0.07 0.06 0.05 0.03 0.02 0.02 0.01 0.01 0.01 0.01 0.01
0.00 0.00 0.00 0.00 0.00 0.00 0.00 0.00 0.00 0.00 0.00 0.00 0.00 0.01 0.03 0.02 0.01 0.03 0.03 0.01 0.00 0.00 0.01 0.02 0.03 0.04 0.05 0.06 0.07 0.08 0.08 0.08 0.08 0.07 0.06 0.04 0.03 0.02 0.02 0.01 0.01 0.01 0.01 0.01
0.00 0.00 0.00 0.00 0.00 0.00 0.01 0.00 0.01 0.00 0.01 0.02 0.01 0.00 0.03 0.06 0.04 0.02 0.02 0.02 0.02 0.01 0.01 0.01 0.02 0.03 0.04 0.05 0.06 0.06 0.07 0.07 0.07 0.07 0.05 0.04 0.04 0.02 0.02 0.02 0.02 0.01 0.01 0.00
0.01 0.02 0.01 0.00 0.03 0.03 0.02 0.02 0.02 0.04 0.05 0.02 0.02 0.02 0.02 0.02 0.02 0.02 0.02 0.01 0.01 0.01 0.02 0.01 0.01 0.02 0.03 0.04 0.05 0.06 0.06 0.06 0.05 0.05 0.05 0.04 0.04 0.04 0.03 0.02 0.02 0.01 0.01 0.01
0.01 0.01 0.00 0.00 0.00 0.00 0.00 0.01 0.02 0.02 0.05 0.04 0.02 0.02 0.02 0.03 0.03 0.03 0.02 0.01 0.01 0.01 0.02 0.02 0.01 0.02 0.03 0.03 0.04 0.04 0.04 0.04 0.03 0.03 0.03 0.03 0.02 0.02 0.02 0.01 0.02 0.02 0.02 0.01
0.01 0.01 0.03 0.02 0.00 0.00 0.00 0.01 0.01 0.01 0.02 0.03 0.02 0.02 0.03 0.03 0.02 0.02 0.02 0.02 0.02 0.02 0.02 0.02 0.02 0.01 0.02 0.02 0.02 0.03 0.04 0.04 0.04 0.04 0.04 0.04 0.04 0.03 0.03 0.02 0.02 0.02 0.01 0.01